Duncan, OK

12:10 PM CDT on March 30, 2017 (GMT -0500)
Halliburton

Weather History for KDUC - January, 2013

Change the Weather History Date:

Monday, January 14, 2013

  Actual Average (KLAW) Record (KLAW)
Temperature  
Mean Temperature 32 °F -  
Max Temperature 41 °F 49 °F 76 °F (1953)
Min Temperature 23 °F 26 °F 7 °F (1963)
Degree Days  
Heating Degree Days 33    
Moisture  
Dew Point 15 °F    
Average Humidity 54    
Maximum Humidity 80    
Minimum Humidity 33    
Precipitation  
Precipitation 0.00 in - - ()
Sea Level Pressure  
Sea Level Pressure 30.31 in    
Wind  
Wind Speed 10 mph (NE)    
Max Wind Speed 16 mph    
Max Gust Speed 21 mph    
Visibility 10 miles    
Events      
Averages and records for this station are not official NWS values.
T = Trace of Precipitation, MM = Missing Value Source: NWS Daily Summary

Daily Weather History Graph

Daily Weather History Graph

Search for Another Location

Airport or City:

Trip Planner

Search our weather history database for the weather conditions in past years. The results will help you decide how hot, cold, wet, or windy it might be!

Date:

Astronomy

Jan. 14, 2013 Rise Set
Actual Time 7:38 AM CST 5:44 PM CST
Civil Twilight 7:10 AM CST 6:11 PM CST
Nautical Twilight 6:40 AM CST 6:42 PM CST
Astronomical Twilight 6:09 AM CST 7:12 PM CST
Moon 9:22 AM CST (1/14) 9:19 PM CST (1/14)
Length of Visible Light 11h 00m
Length of Day
10h 05m
Waxing Crescent, 11% of the Moon is Illuminated
Jan 14
Waxing Crescent
Jan 18
First Quarter
Jan 26
Full
Feb 3
Last Quarter
Feb 10
New

Hourly Weather History & Observations

Time (CST) Temp. Windchill Dew Point Humidity Pressure Visibility Wind Dir Wind Speed Gust Speed Precip Events Conditions
12:15 AM 23.0 °F 13.9 °F 17.6 °F 80% 30.33 in 10.0 mi NNE 8.1 mph - N/A   Clear
12:35 AM 24.8 °F 14.6 °F 17.6 °F 74% 30.33 in 10.0 mi NNE 10.4 mph - N/A   Clear
12:55 AM 24.8 °F 14.6 °F 15.8 °F 69% 30.31 in 10.0 mi NE 10.4 mph - N/A   Clear
1:15 AM 24.8 °F 14.0 °F 15.8 °F 69% 30.31 in 10.0 mi NE 11.5 mph - N/A   Clear
1:35 AM 24.8 °F 14.0 °F 15.8 °F 69% 30.31 in 10.0 mi NE 11.5 mph - N/A   Clear
1:55 AM 24.8 °F 13.4 °F 14.0 °F 64% 30.31 in 10.0 mi NNE 12.7 mph - N/A   Clear
2:15 AM 24.8 °F 13.4 °F 14.0 °F 64% 30.32 in 10.0 mi NNE 12.7 mph - N/A   Clear
2:55 AM 24.8 °F 14.0 °F 15.8 °F 69% 30.33 in 10.0 mi NNE 11.5 mph - N/A   Clear
3:15 AM 26.6 °F 15.7 °F 15.8 °F 64% 30.34 in 10.0 mi NNE 12.7 mph - N/A   Scattered Clouds
3:35 AM 26.6 °F 16.2 °F 15.8 °F 64% 30.34 in 10.0 mi NNE 11.5 mph - N/A   Scattered Clouds
3:55 AM 26.6 °F 15.7 °F 17.6 °F 69% 30.35 in 10.0 mi NNE 12.7 mph - N/A   Mostly Cloudy
4:15 AM 26.6 °F 16.8 °F 17.6 °F 69% 30.34 in 10.0 mi NE 10.4 mph 17.3 mph N/A   Overcast
4:35 AM 26.6 °F 14.7 °F 15.8 °F 64% 30.33 in 10.0 mi NE 15.0 mph 18.4 mph N/A   Overcast
4:55 AM 26.6 °F 15.2 °F 15.8 °F 64% 30.33 in 10.0 mi NE 13.8 mph 20.7 mph N/A   Overcast
5:15 AM 26.6 °F 16.2 °F 15.8 °F 64% 30.32 in 10.0 mi NE 11.5 mph 18.4 mph N/A   Overcast
5:35 AM 26.6 °F 15.2 °F 15.8 °F 64% 30.33 in 10.0 mi NE 13.8 mph - N/A   Mostly Cloudy
6:15 AM 26.6 °F 17.5 °F 15.8 °F 64% 30.34 in 10.0 mi NE 9.2 mph - N/A   Mostly Cloudy
6:35 AM 26.6 °F 15.7 °F 14.0 °F 59% 30.34 in 10.0 mi NE 12.7 mph 16.1 mph N/A   Overcast
6:55 AM 26.6 °F 16.8 °F 15.8 °F 64% 30.34 in 10.0 mi NE 10.4 mph - N/A   Overcast
7:15 AM 26.6 °F 17.5 °F 14.0 °F 59% 30.36 in 10.0 mi NNE 9.2 mph - N/A   Overcast
7:35 AM 26.6 °F 17.5 °F 14.0 °F 59% 30.38 in 10.0 mi NE 9.2 mph - N/A   Mostly Cloudy
7:55 AM 26.6 °F 20.0 °F 14.0 °F 59% 30.39 in 10.0 mi ENE 5.8 mph - N/A   Scattered Clouds
8:15 AM 26.6 °F 18.2 °F 14.0 °F 59% 30.39 in 10.0 mi ENE 8.1 mph - N/A   Clear
8:35 AM 26.6 °F 18.2 °F 14.0 °F 59% 30.40 in 10.0 mi ENE 8.1 mph - N/A   Clear
8:55 AM 28.4 °F 18.5 °F 14.0 °F 55% 30.39 in 10.0 mi NE 11.5 mph - N/A   Scattered Clouds
9:15 AM 28.4 °F 19.1 °F 12.2 °F 51% 30.40 in 10.0 mi ENE 10.4 mph - N/A   Overcast
9:35 AM 30.2 °F 20.8 °F 14.0 °F 51% 30.39 in 10.0 mi ENE 11.5 mph - N/A   Scattered Clouds
9:55 AM 30.2 °F 19.8 °F 12.2 °F 47% 30.39 in 10.0 mi ENE 13.8 mph - N/A   Scattered Clouds
10:15 AM 32.0 °F 21.2 °F 12.2 °F 44% 30.39 in 10.0 mi ENE 16.1 mph 20.7 mph N/A   Clear
10:35 AM 32.0 °F 22.1 °F 12.2 °F 44% 30.37 in 10.0 mi ENE 13.8 mph - N/A   Clear
10:55 AM 32.0 °F 21.6 °F 12.2 °F 44% 30.36 in 10.0 mi ENE 15.0 mph - N/A   Clear
11:15 AM 32.0 °F 21.6 °F 12.2 °F 44% 30.35 in 10.0 mi NE 15.0 mph 19.6 mph N/A   Clear
11:35 AM 33.8 °F 24.8 °F 12.2 °F 41% 30.34 in 10.0 mi NE 12.7 mph 18.4 mph N/A   Clear
11:55 AM 33.8 °F 24.8 °F 12.2 °F 41% 30.33 in 10.0 mi ENE 12.7 mph 17.3 mph N/A   Clear
12:15 PM 35.6 °F 27.5 °F 12.2 °F 38% 30.31 in 10.0 mi ENE 11.5 mph - N/A   Clear
12:35 PM 35.6 °F 28.0 °F 12.2 °F 38% 30.30 in 10.0 mi ENE 10.4 mph 18.4 mph N/A   Clear
12:55 PM 37.4 °F 29.8 °F 12.2 °F 36% 30.29 in 10.0 mi NE 11.5 mph 18.4 mph N/A   Clear
1:15 PM 37.4 °F 29.3 °F 12.2 °F 36% 30.28 in 10.0 mi NE 12.7 mph 18.4 mph N/A   Clear
1:35 PM 37.4 °F 28.9 °F 14.0 °F 38% 30.26 in 10.0 mi NE 13.8 mph 19.6 mph N/A   Clear
2:15 PM 39.2 °F 32.5 °F 14.0 °F 36% 30.25 in 10.0 mi NE 10.4 mph 19.6 mph N/A   Clear
2:55 PM 39.2 °F 31.6 °F 14.0 °F 36% 30.24 in 10.0 mi ENE 12.7 mph 18.4 mph N/A   Clear
3:15 PM 39.2 °F 31.6 °F 14.0 °F 36% 30.24 in 10.0 mi NE 12.7 mph 19.6 mph N/A   Clear
3:35 PM 41.0 °F 34.3 °F 14.0 °F 33% 30.25 in 10.0 mi NE 11.5 mph 17.3 mph N/A   Clear
3:55 PM 39.2 °F 31.6 °F 14.0 °F 36% 30.25 in 10.0 mi ENE 12.7 mph 17.3 mph N/A   Clear
4:35 PM 39.2 °F 31.6 °F 14.0 °F 36% 30.25 in 10.0 mi ENE 12.7 mph 17.3 mph N/A   Clear
4:55 PM 37.4 °F 31.4 °F 14.0 °F 38% 30.26 in 10.0 mi ENE 8.1 mph - N/A   Clear
5:15 PM 37.4 °F 29.3 °F 14.0 °F 38% 30.26 in 10.0 mi ENE 12.7 mph - N/A   Clear
5:35 PM 35.6 °F 29.2 °F 14.0 °F 41% 30.26 in 10.0 mi ENE 8.1 mph - N/A   Clear
5:55 PM 33.8 °F 27.7 °F 14.0 °F 44% 30.27 in 10.0 mi ENE 6.9 mph - N/A   Clear
6:15 PM 33.8 °F 28.6 °F 15.8 °F 48% 30.27 in 10.0 mi NE 5.8 mph - N/A   Clear
6:35 PM 32.0 °F 26.4 °F 15.8 °F 51% 30.28 in 10.0 mi NE 5.8 mph - N/A   Clear
6:55 PM 32.0 °F 25.6 °F 15.8 °F 51% 30.27 in 10.0 mi NE 6.9 mph - N/A   Clear
7:15 PM 32.0 °F 25.6 °F 15.8 °F 51% 30.28 in 10.0 mi NE 6.9 mph - N/A   Clear
7:35 PM 32.0 °F 26.4 °F 17.6 °F 55% 30.28 in 10.0 mi NE 5.8 mph - N/A   Clear
7:55 PM 30.2 °F 23.4 °F 17.6 °F 60% 30.28 in 10.0 mi NE 6.9 mph - N/A   Clear
8:15 PM 30.2 °F 23.4 °F 17.6 °F 60% 30.29 in 10.0 mi NNE 6.9 mph - N/A   Clear
8:35 PM 30.2 °F 23.4 °F 17.6 °F 60% 30.28 in 10.0 mi NE 6.9 mph - N/A   Clear
8:55 PM 30.2 °F 23.4 °F 17.6 °F 60% 30.28 in 10.0 mi NE 6.9 mph - N/A   Clear
9:15 PM 30.2 °F 24.3 °F 17.6 °F 60% 30.27 in 10.0 mi NE 5.8 mph - N/A   Clear
9:35 PM 30.2 °F 22.6 °F 17.6 °F 60% 30.27 in 10.0 mi NE 8.1 mph - N/A   Clear
9:55 PM 30.2 °F 22.6 °F 17.6 °F 60% 30.27 in 10.0 mi ENE 8.1 mph - N/A   Clear
10:15 PM 30.2 °F 24.3 °F 17.6 °F 60% 30.27 in 10.0 mi ENE 5.8 mph - N/A   Clear
10:35 PM 28.4 °F 20.4 °F 17.6 °F 64% 30.27 in 10.0 mi ENE 8.1 mph - N/A   Clear
10:55 PM 30.2 °F 23.4 °F 17.6 °F 60% 30.27 in 10.0 mi ENE 6.9 mph - N/A   Clear
11:15 PM 28.4 °F 21.2 °F 17.6 °F 64% 30.27 in 10.0 mi NE 6.9 mph - N/A   Clear
11:35 PM 28.4 °F 20.4 °F 17.6 °F 64% 30.27 in 10.0 mi ENE 8.1 mph - N/A   Clear
11:55 PM 28.4 °F 19.7 °F 17.6 °F 64% 30.27 in 10.0 mi ENE 9.2 mph - N/A   Clear